Location: Newark
(41.5175°N, 72.7122°W)
Time: 15:42:32
(UTC+00:00)

Tiangong - Visible Passes

Search period start: 23 October 2021 00:00
Search period end: 02 November 2021 00:00
Orbit: 381 x 390 km, 41.5° (Epoch: 23 October)

Date Brightness Start Highest point End Pass type
(mag) Time Alt. Az. Time Alt. Az. Time Alt. Az.
23 Oct 2.5 23:55:50 10° W 23:58:00 39° W 23:58:00 39° W visible
24 Oct 1.0 22:56:28 10° W 22:59:40 89° NNW 23:01:26 24° E visible
25 Oct 4.6 00:33:22 10° W 00:33:40 12° W 00:33:40 12° W visible
25 Oct 1.3 23:33:57 10° W 23:37:07 62° SSW 23:37:07 62° SSW visible
26 Oct 1.1 22:34:33 10° W 22:37:45 80° S 22:40:37 12° ESE visible
27 Oct 3.8 00:11:36 10° W 00:12:51 19° WSW 00:12:51 19° WSW visible
27 Oct 2.0 23:12:03 10° W 23:15:06 42° SSW 23:16:24 27° SE visible
28 Oct 1.5 22:12:34 10° W 22:15:44 61° SSW 22:18:54 10° ESE visible
28 Oct 3.5 23:50:01 10° WSW 23:52:14 17° SSW 23:52:18 17° SSW visible
29 Oct 2.9 22:50:11 10° W 22:52:58 27° SSW 22:55:44 10° SE visible
30 Oct 4.3 23:29:35 10° SW 23:29:56 10° SW 23:30:16 10° SSW visible
31 Oct 3.9 22:28:30 10° WSW 22:30:41 17° SSW 22:32:52 10° SSE visible
